SCP
0 0 0 0 0 0 0 0 0 0 0 0 0 0 0 0 0 0 0 0 0 0 0 0 0 0 0 0 0 0 0 0 0 0 0 0 0 0 0 0 0 0 0 0
0 0 0 0 0 0 0 0 0 0 0 0 0 0 0 0 0 0 0 0 0 0 0 0 0 0 0 0 0 0 0 0 0 0 0 0 0 0 0 0 0 0 0 0
0 0 0 0 0 0 0 0 0 0 0 0 0 0 0 0 0 0 0 0 0 0 0 0 0 0 0 0 0 0 0 0 0 0 0 0 0 0 0 0 0 0 0 0
0 0 0 0 0 0 0 0 0 0 0 0 0 0 0 0 0 0 0 0 0 0 0 0 0 0 0 0 0 0 0 0 0 0 0 0 0 0 0 0 0 0 0 0
0 0 0 0 0 0 0 0 0 0 0 0 0 0 0 0 0 0 0 0 0 0 0 0 0 0 0 0 0 0 0 0 0 0 0 0 0 0 0 0 0 0 0 0
0 0 0 0 0 0 0 0 0 0 0 0 0 0 0 0 0 0 0 0 0 0 0 0 0 0 0 0 0 0 0 0 0 0 0 0 0 0 0 0 0 0 0 0
0 0 0 0 0 0 0 0 0 0 0 0 0 0 0 0 0 0 0 0 0 0 0 0 0 0 0 0 0 0 0 0 0 0 0 0 0 0 0 0 0 0 0 0
0 0 0 0 0 0 0 0 0 0 0 0 0 0 0 0 0 0 0 0 0 0 0 0 0 0 0 0 0 0 0 0 0 0 0 0 0 0 0 0 0 0 0 0
0 0 0 0 0 0 0 0 0 0 0 0 0 0 0 0 0 0 0 0 0 0 0 0 0 0 0 0 0 0 0 0 0 0 0 0 0 0 0 0 0 0 0 0
0 0 0 0 0 0 0 0 0 0 0 0 0 0 0 0 0 0 0 0 0 0 0 0 0 0 0 0 0 0 0 0 0 0 0 0 0 0 0 0 0 0 0 0
0 0 0 0 0 0 0 0 0 0 0 0 0 0 0 0 0 0 0 0 0 0 0 0 0 0 0 0 0 0 0 0 0 0 0 0 0 0 0 0 0 0 0 0
0 0 0 0 0 0 0 0 0 0 0 0 0 0 0 0 0 0 0 0 0 0 0 0 0 0 0 0 0 0 0 0 0 0 0 0 0 0 0 0 0 0 0 0
0 0 0 0 0 0 0 0 0 0 0 0 0 0 0 0 0 0 0 0 0 0 0 0 0 0 0 0 0 0 0 0 0 0 0 0 0 0 0 0 0 0 0 0
0 0 0 0 0 0 0 0 0 0 0 0 0 0 0 0 0 0 0 0 0 0 0 0 0 0 0 0 0 0 0 0 0 0 0 0 0 0 0 0 0 0 0 0
0 0 0 0 0 0 0 0 0 0 0 0 0 0 0 0 0 0 0 0 0 0 0 0 0 0 0 0 0 0 0 0 0 0 0 0 0 0 0 0 0 0 0 0
0 0 0 0 0 0 0 0 0 0 0 0 0 0 0 0 0 0 0 0 0 0 0 0 0 0 0 0 0 0 0 0 0 0 0 0 0 0 0 0 0 0 0 0
0 0 0 0 0 0 0 0 0 0 0 0 0 0 0 0 0 0 0 0 0 0 0 0 0 0 0 0 0 0 0 0 0 0 0 0 0 0 0 0 0 0 0 0
0 0 0 0 0 0 0 0 0 0 0 0 0 0 0 0 0 0 0 0 0 0 0 0 0 0 0 0 0 0 0 0 0 0 0 0 0 0 0 0 0 0 0 0
0 0 0 0 0 0 0 0 0 0 0 0 0 0 0 0 0 0 0 0 0 0 0 0 0 0 0 0 0 0 0 0 0 0 0 0 0 0 0 0 0 0 0 0
0 0 0 0 0 0 0 0 0 0 0 0 0 0 0 0 0 0 0 0 0 0 0 0 0 0 0 0 0 0 0 0 0 0 0 0 0 0 0 0 0 0 0 0
0 0 0 0 0 0 0 0 0 0 0 0 0 0 0 0 0 0 0 0 0 0 0 0 0 0 0 0 0 0 0 0 0 0 0 0 0 0 0 0 0 0 0 0
0 0 0 0 0 0 0 0 0 0 0 0 0 0 0 0 0 0 0 0 0 0 0 0 0 0 0 0 0 0 0 0 0 0 0 0 0 0 0 0 0 0 0 0
0 0 0 0 0 0 0 0 0 0 0 0 0 0 0 0 0 0 0 0 0 0 0 0 0 0 0 0 0 0 0 0 0 0 0 0 0 0 0 0 0 0 0 0
0 0 0 0 0 0 0 0 0 0 0 0 0 0 0 0 0 0 0 0 0 0 0 0 0 0 0 0 0 0 0 0 0 0 0 0 0 0 0 0 0 0 0 0
0 0 0 0 0 0 0 0 0 0 0 0 0 0 0 0 0 0 0 0 0 0 0 0 0 0 0 0 0 0 0 0 0 0 0 0 0 0 0 0 0 0 0 0
0 0 0 0 0 0 0 0 0 0 0 0 0 0 0 0 0 0 0 0 0 0 0 0 0 0 0 0 0 0 0 0 0 0 0 0 0 0 0 0 0 0 0 0
0 0 0 0 0 0 0 0 0 0 0 0 0 0 0 0 0 0 0 0 0 0 0 0 0 0 0 0 0 0 0 0 0 0 0 0 0 0 0 0 0 0 0 0
Wind_Speed
8 8 7 5 5 6 6 6 6 6 3 1 2 3 2 3 4 4 4 4 4 3 3 3 2 2 2 2 3 3 3 3 3 3 3 2 2 2 1 1 1 1 2 1
8 8 7 8 7 7 9 8 7 7 5 0 2 3 3 3 3 3 3 3 4 4 3 3 3 2 2 2 3 3 4 3 2 2 2 2 2 2 2 1 1 1 1 1
7 8 8 7 7 7 7 6 6 6 3 1 1 2 3 3 3 3 3 2 3 3 3 2 2 2 2 1 2 3 3 3 3 2 2 2 2 2 2 2 1 1 1 2
6 7 8 2 1 1 3 3 4 4 1 0 1 2 2 3 2 3 3 2 2 2 2 2 2 2 1 1 1 2 2 3 3 3 3 2 2 2 2 2 2 2 1 2
5 7 6 3 0 1 3 3 2 2 1 1 1 2 2 3 4 2 2 2 1 1 1 2 1 2 2 1 1 1 2 2 3 4 3 2 2 2 2 2 2 2 2 3
6 7 6 1 3 2 2 2 2 2 2 2 1 1 1 3 4 3 2 2 2 1 1 1 1 1 1 1 1 1 1 2 2 3 3 3 3 3 2 2 3 2 2 3
9 8 4 2 2 1 2 1 3 3 2 1 1 1 3 4 3 3 2 2 2 1 1 0 0 1 1 1 1 1 1 0 2 3 3 4 3 2 2 2 2 2 2 2
7 8 4 2 1 1 2 3 3 3 3 3 3 3 4 3 2 2 2 1 1 1 1 1 1 0 0 0 0 0 0 1 1 2 2 3 3 3 3 3 3 2 2 2
3 2 2 1 2 3 4 3 3 3 3 2 1 1 2 1 1 1 1 1 0 1 1 0 0 0 1 1 0 1 0 1 2 2 2 2 3 3 2 2 2 3 2 2
5 2 2 2 3 4 4 4 3 2 1 1 1 0 1 1 1 1 1 1 1 1 2 2 1 1 2 1 1 1 1 1 2 2 2 2 2 3 3 3 3 3 3 3
8 6 4 2 2 3 4 4 3 3 2 2 2 2 2 2 2 2 2 2 2 2 2 3 2 2 2 1 1 2 2 2 2 1 2 2 2 2 3 3 4 4 3 3
7 6 6 5 4 4 4 4 4 4 3 3 3 3 3 3 2 2 3 2 3 2 3 3 3 2 2 2 2 2 2 2 1 2 2 2 2 1 1 2 3 4 3 3
8 8 8 7 5 5 6 6 5 5 4 4 3 3 3 3 2 3 3 3 3 3 3 3 2 2 2 2 2 2 2 2 1 2 2 2 2 3 2 1 1 2 3 3
6 6 7 6 5 6 6 6 6 5 4 3 3 3 3 3 3 3 3 3 2 2 2 2 2 2 2 1 2 2 2 2 2 2 2 2 2 3 3 2 2 1 1 2
8 7 7 6 6 6 6 5 5 4 3 3 3 3 3 3 3 3 2 2 2 2 2 2 2 2 1 1 2 2 1 1 1 1 1 2 2 2 2 2 2 2 1 1
8 7 6 6 6 6 5 5 5 5 4 4 3 3 3 3 3 2 2 2 2 2 2 2 2 2 1 2 2 1 1 1 1 1 1 1 2 1 2 2 2 2 2 2
7 7 6 7 7 7 6 6 5 5 4 4 3 3 3 3 2 2 2 2 2 2 2 2 2 1 1 2 2 1 1 2 2 2 2 2 2 2 2 2 2 2 2 2
7 7 6 6 6 6 6 5 5 5 4 4 3 3 3 3 3 3 2 2 2 2 2 2 1 2 2 2 2 2 2 2 2 2 2 2 2 2 2 2 2 2 2 2
6 5 5 5 5 5 5 5 5 5 4 3 3 3 3 3 3 3 3 3 4 4 3 2 2 2 2 2 2 1 2 2 2 2 2 2 2 2 2 2 2 2 2 2
6 5 5 5 5 4 4 4 4 4 3 3 3 3 3 3 3 3 3 4 4 3 2 2 3 3 3 2 2 2 2 2 2 2 2 2 2 3 2 2 2 3 3 3
6 5 5 5 4 4 4 5 4 3 3 3 3 3 3 3 3 3 3 3 2 2 2 3 2 2 2 2 2 2 2 3 3 3 3 3 3 3 3 3 3 3 3 3
5 4 5 4 4 4 4 3 3 3 3 3 3 3 3 3 3 3 3 2 2 2 2 2 2 2 2 2 2 3 3 3 3 3 3 3 3 3 3 3 3 3 3 3
4 4 4 4 4 4 3 3 3 2 2 2 2 2 3 2 2 2 2 1 1 2 1 1 2 3 3 2 3 3 3 4 4 3 3 3 3 3 3 3 3 3 3 3
5 4 4 4 4 3 3 3 3 2 2 1 2 2 2 1 1 1 1 1 1 2 1 2 3 4 4 3 3 3 3 3 3 3 3 3 3 3 3 3 3 3 3 3
5 4 4 3 3 2 3 3 3 2 2 1 1 2 2 1 1 1 1 1 2 2 1 2 4 4 3 3 3 3 3 3 3 3 3 3 3 3 3 3 3 3 3 3
4 3 3 3 2 2 2 2 2 2 2 1 1 1 1 1 1 1 0 1 1 1 1 2 2 3 2 2 2 2 2 3 3 3 3 3 3 3 3 3 4 3 3 3
4 3 2 2 2 1 1 2 2 2 2 1 1 1 1 1 1 1 1 1 1 1 1 1 1 1 1 1 2 2 2 2 2 2 3 3 2 2 3 3 3 2 2 2
Wind_Direction
273 281 284 279 272 265 263 270 277 291 295 200 133 133 135 139 135 130 132 135 134 135 137 138 142 150 142 144 146 144 143 143 155 159 146 145 141 139 143 153 161 143 139 134
276 271 269 267 261 258 260 264 266 276 286 137 121 129 143 144 136 130 139 144 144 150 150 160 166 175 175 175 166 156 155 155 144 156 149 153 162 163 168 178 179 149 151 150
281 282 274 259 250 248 254 259 265 270 276 138 136 152 168 164 159 159 147 137 147 156 155 167 170 170 173 196 165 147 153 158 156 159 161 170 178 170 174 175 165 174 191 150
275 272 261 261 89 256 269 275 283 288 259 179 136 121 128 129 139 142 132 132 149 160 149 155 162 153 158 186 195 166 167 170 164 164 165 174 182 181 189 179 176 193 197 154
270 269 264 251 175 285 260 266 302 299 333 41 75 104 115 104 89 78 92 96 101 114 127 141 156 157 160 177 211 187 173 181 168 164 167 175 188 207 212 195 192 197 194 177
258 266 268 76 65 21 311 260 2 10 50 49 87 214 103 94 89 78 76 80 76 63 70 127 159 144 163 180 200 230 208 190 173 167 168 183 203 213 217 211 206 196 198 195
251 257 263 52 40 329 253 34 37 39 38 31 4 51 96 92 88 82 81 83 82 74 47 27 44 164 188 189 215 237 229 233 188 181 189 192 203 203 204 211 198 195 204 208
245 249 247 73 89 308 348 31 35 28 24 37 50 68 92 101 112 104 84 77 83 90 67 30 14 8 282 252 252 103 184 218 231 216 212 201 185 199 205 193 194 205 208 212
267 270 54 75 21 358 352 346 2 7 18 29 25 64 120 133 139 135 139 134 169 161 158 183 171 212 274 270 214 155 206 232 223 239 234 202 183 191 197 187 192 205 204 208
273 256 285 320 346 344 338 329 330 338 333 318 295 282 166 172 175 203 198 193 207 205 204 212 199 218 252 257 212 193 230 243 221 224 230 225 201 187 186 192 195 206 205 205
277 280 272 265 300 307 310 309 313 307 297 285 274 263 225 218 210 219 223 210 217 214 216 219 206 207 237 248 258 236 232 215 212 217 211 218 210 192 192 199 191 196 202 196
272 290 292 289 292 299 298 298 294 287 282 276 264 259 252 242 228 222 225 223 223 217 218 227 218 209 214 221 242 248 242 206 194 202 207 193 185 217 238 204 191 200 206 200
279 293 292 293 302 303 296 288 279 271 269 270 268 264 269 267 244 232 228 228 229 223 224 230 225 224 218 213 236 247 236 222 206 204 204 196 197 199 208 282 239 219 209 201
288 290 288 291 296 294 289 287 283 276 271 270 273 269 262 262 254 240 233 235 234 224 224 228 226 236 222 205 236 250 224 221 220 210 209 205 207 212 201 193 198 230 235 223
277 277 275 280 279 281 286 286 280 274 271 266 261 258 253 253 251 250 247 245 235 224 222 216 217 235 226 221 231 243 226 212 213 210 209 209 215 215 208 205 193 178 159 217
283 283 280 277 277 275 273 271 269 266 264 260 257 256 256 255 253 251 248 242 237 232 225 223 232 232 224 227 237 230 223 228 236 220 211 213 213 210 213 210 197 185 188 183
282 281 283 281 280 274 266 262 259 261 260 257 251 246 247 245 238 239 242 246 245 243 235 227 229 219 220 221 213 209 212 225 235 229 211 218 215 215 215 213 204 199 197 182
280 280 278 277 278 279 275 268 264 262 257 247 241 239 238 233 228 231 236 245 251 245 240 236 214 210 223 226 214 210 202 212 221 219 212 210 223 224 215 213 216 214 207 193
295 296 293 289 285 282 279 275 269 267 262 250 236 237 244 243 238 237 234 239 241 238 233 214 213 222 227 229 222 197 201 218 238 238 225 219 228 237 225 214 215 216 210 191
302 299 295 292 288 290 291 287 281 275 269 256 240 238 244 246 242 241 242 244 238 226 201 203 213 217 215 208 206 208 215 224 231 233 223 212 217 230 230 221 213 217 219 207
299 301 301 300 300 299 292 282 274 266 264 254 241 239 242 247 244 235 232 242 237 196 179 201 215 216 209 213 225 227 223 220 225 225 218 216 219 226 226 221 218 220 222 217
303 307 305 301 298 295 291 286 279 272 261 252 245 247 250 251 251 249 242 231 205 185 190 200 207 220 240 251 236 227 226 229 229 226 216 212 218 226 225 222 222 223 224 219
305 307 306 305 302 300 307 307 295 282 267 262 255 250 254 255 245 237 251 246 196 198 202 202 223 238 253 247 238 232 226 225 227 229 226 218 217 221 223 224 222 221 222 219
314 314 314 315 315 309 307 314 314 302 296 289 281 268 263 263 264 258 238 197 187 194 213 213 224 234 243 245 242 236 230 225 222 223 229 227 222 222 222 225 223 220 220 220
311 311 313 314 308 307 313 320 323 324 323 319 327 325 309 283 257 256 246 210 194 200 218 224 225 234 241 242 238 238 231 227 233 229 223 228 227 223 217 215 216 217 219 219
305 304 302 295 297 309 316 318 313 313 319 325 327 326 321 316 285 263 240 221 219 222 218 222 226 235 249 252 251 251 246 245 248 244 236 232 229 225 218 212 213 213 218 221
304 305 309 310 317 321 310 299 293 293 298 300 303 314 309 298 285 264 251 244 243 234 231 236 235 247 268 274 274 267 261 250 246 244 236 232 228 225 221 217 214 213 215 219